This is the latest recevied weather packets stored in our database for station/object YB4RWH-13. If no packets are shown the sender has not sent any weather packets the latest 10 day(s).
| Time | Temp. | Humidity | Pressure | Rain* | Wind** | Luminosity | Snow |
|---|---|---|---|---|---|---|---|
| 1788499242 | 32.22° C | 100% | 1013.8 hPa | - | - | - | - |
| 1788498943 | 32.22° C | 100% | 1014 hPa | - | - | - | - |
| 1788498644 | 31.67° C | 100% | 1014 hPa | - | - | - | - |
| 1788498344 | 31.67° C | 100% | 1014.2 hPa | - | - | - | - |
| 1788498043 | 31.67° C | 100% | 1014.4 hPa | - | - | - | - |
| 1788497744 | 31.67° C | 100% | 1014.4 hPa | - | - | - | - |
| 1788497144 | 31.11° C | 100% | 1014.8 hPa | - | - | - | - |
| 1788496840 | 31.11° C | 100% | 1014.7 hPa | - | - | - | - |
| 1788496568 | 31.11° C | 100% | 1014.8 hPa | - | - | - | - |
| 1788496243 | 31.11° C | 100% | 1014.9 hPa | - | - | - | - |
| 1788495942 | 30.56° C | 100% | 1015.2 hPa | - | - | - | - |
| 1788495642 | 30.56° C | 100% | 1015.2 hPa | - | - | - | - |
| 1788495342 | 30.56° C | 100% | 1015.4 hPa | - | - | - | - |
| 1788495042 | 30° C | 100% | 1015.5 hPa | - | - | - | - |
| 1788494742 | 30° C | 100% | 1015.7 hPa | - | - | - | - |
| 1788494443 | 29.44° C | 100% | 1015.8 hPa | - | - | - | - |
| 1788494143 | 29.44° C | 100% | 1015.9 hPa | - | - | - | - |
| 1788493842 | 29.44° C | 100% | 1016 hPa | - | - | - | - |
| 1788493542 | 29.44° C | 100% | 1016.1 hPa | - | - | - | - |
| 1788493243 | 30° C | 100% | 1016.1 hPa | - | - | - | - |
| 1788492943 | 29.44° C | 100% | 1016.2 hPa | - | - | - | - |
| 1788492642 | 29.44° C | 100% | 1016.3 hPa | - | - | - | - |
| 1788492343 | 29.44° C | 100% | 1016.5 hPa | - | - | - | - |
| 1788492042 | 28.89° C | 100% | 1016.6 hPa | - | - | - | - |
| 1788491742 | 28.89° C | 100% | 1016.7 hPa | - | - | - | - |
* Rain since midnight (hover to see other rain measurements)
** Current wind speed in m/s (hover to see current wind gust speed)